Location: Huesca
(42.1318°N, 0.4078°W)
Time: 10:05:21
(UTC+02:00)

SR - Visible Passes

Search period start: 15 July 2024 00:00
Search period end: 25 July 2024 00:00
Orbit: 580 x 857 km, 66.7° (Epoch: 14 July)

Date Brightness Start Highest point End Pass type
(mag) Time Alt. Az. Time Alt. Az. Time Alt. Az.
15 Jul ? 05:57:16 10° S 06:01:46 43° ESE 06:05:58 10° NE visible
16 Jul ? 05:06:11 10° SSE 05:09:31 19° ESE 05:12:42 10° ENE visible
17 Jul ? 05:53:50 10° SSW 05:58:32 78° ESE 06:02:57 10° NNE visible
18 Jul ? 05:02:29 13° S 05:06:11 33° ESE 05:10:10 10° NE visible
19 Jul ? 04:11:42 11° SE 04:13:58 15° ESE 04:16:28 10° ENE visible
19 Jul ? 05:50:56 11° SW 05:55:21 59° WNW 05:59:42 10° NNE visible
20 Jul ? 05:00:05 23° S 05:02:53 60° ESE 05:07:13 10° NE visible
21 Jul ? 04:09:11 22° SE 04:10:33 26° ESE 04:14:14 10° NE visible
21 Jul ? 05:48:24 12° WSW 05:52:14 34° NW 05:56:14 10° NNE visible
22 Jul ? 03:18:14 11° ESE 03:18:23 11° ESE 03:19:38 10° E visible
22 Jul ? 04:57:27 30° SW 04:59:39 77° WNW 05:04:01 10° NNE visible
23 Jul ? 04:06:27 41° SE 04:07:12 45° ESE 04:11:24 10° NE visible
23 Jul ? 05:45:42 10° W 05:49:11 21° NW 05:52:33 10° N visible
24 Jul ? 03:15:24 20° E 03:15:24 20° E 03:18:08 10° ENE visible
24 Jul ? 04:54:36 28° WSW 04:56:26 43° NW 05:00:36 10° NNE visible
